Location: ???????
(55.4333°N, 37.4500°E)
Time: 12:33:28
(UTC+00:00)

Daily predictions for brighter satellites

Satellite Brightness Start Highest point End
(mag) Time Altitude Azimuth Time Altitude Azimuth Time Altitude Azimuth
SL-16 R/B 2.3 18:09:31 10° NNW 18:15:14 79° NE 18:20:55 10° SE
Cosmos 1302 Rocket 4.0 18:10:43 10° SSW 18:15:50 67° ESE 18:21:01 10° NNE
ISS -3.1 18:13:18 10° SW 18:16:22 35° SSE 18:19:27 10° E
CZ-4C R/B 2.0 18:12:25 10° SW 18:16:54 88° SE 18:22:49 10° NE
Cosmos 2016 Rocket 4.1 18:10:52 10° S 18:17:08 88° E 18:23:21 10° NNE
EP 1 4.3 18:15:16 10° NW 18:17:55 72° NE 18:20:33 10° ESE
Cosmos 724 4.3 18:12:54 10° SW 18:18:52 74° SE 18:24:46 10° NE
NOSS 3 (A) 4.1 18:18:00 10° NW 18:20:01 57° NE 18:22:31 10° ESE
SL-08 R/B 3.3 18:17:34 10° NNE 18:22:27 81° ESE 18:27:14 10° SSW
CZ-4B R/B 2.6 18:20:30 10° SSE 18:23:50 59° ENE 18:27:17 10° N
NOSS 3-3 (C) 4.1 18:24:31 10° SSW 18:29:33 44° SE 18:35:33 10° NE
COSMOS 2406 3.7 18:24:45 10° S 18:30:05 41° ESE 18:35:26 10° NE
Cosmos 1980 Rocket 4.0 18:27:02 10° NW 18:31:43 27° WSW 18:36:22 10° SSW
Meteor 1-20 Rocket 4.3 18:26:33 10° NNW 18:32:09 80° ENE 18:37:49 10° SSE
USA 306 2.0 18:29:22 10° SW 18:32:10 35° SSE 18:34:04 10° E
Terra 3.5 18:31:27 10° SSW 18:35:37 31° W 18:39:50 10° NNW
Helios 1A Rocket 4.0 18:33:50 10° N 18:36:48 36° WNW 18:39:43 10° SW
YAOGAN 11 4.1 18:32:28 10° NNE 18:36:55 76° ESE 18:41:22 10° SSW
Cosmos 1602 Rocket 3.7 18:33:21 10° N 18:37:38 60° ENE 18:41:54 10° SSE
NOSS 3-4 (A) 3.8 18:33:18 10° NW 18:39:44 87° SW 18:47:23 10° SE
NOSS 3-4 (C) 3.8 18:33:55 10° NW 18:40:23 88° SW 18:48:02 10° SE
Cosmos 2333 Rocket 2.3 18:34:40 10° NW 18:40:24 83° WSW 18:46:05 10° SSE
CZ-4 R/B 4.0 18:40:57 10° WSW 18:42:37 13° W 18:44:18 10° WNW
USA 245 4.4 18:38:07 10° SSE 18:44:02 82° WSW 18:49:35 10° NNW
Cosmos 2061 Rocket 4.1 18:40:58 10° S 18:47:13 88° W 18:53:35 10° NNE
Cosmos 1933 3.4 18:44:53 10° S 18:48:34 50° E 18:52:17 10° NNE
Cosmos 44 Rocket 4.1 18:45:19 10° WSW 18:50:24 62° NW 18:55:36 10° NE
ATLAS 2AS CENTAUR R/B 3.7 18:44:39 10° W 18:51:20 50° NNW 18:57:56 10° ENE
Cosmos 1626 Rocket 4.1 18:49:58 10° NNW 18:54:16 57° W 18:58:33 10° S
Cosmos 1607 4.0 18:51:59 10° SW 18:58:12 88° NW 19:04:33 10° NE
Cosmos 2360 Rocket 2.3 18:52:45 10° NNW 18:58:29 85° NE 19:03:37 13° SE
SPOT 3 Rocket 3.8 18:53:25 10° S 18:58:32 67° WSW 19:03:40 10° NNW
Cosmos 1782 4.3 18:56:22 10° SW 18:59:35 33° WNW 19:02:50 10° N
Cosmos 1805 2.8 18:56:19 10° N 18:59:35 70° ENE 19:02:14 14° SSE
Ariane Rocket 3.1 18:57:07 10° SSE 19:02:10 77° WSW 19:07:16 10° NNW
Cosmos 1076 Rocket 4.1 18:58:33 10° N 19:02:40 43° ENE 19:06:00 14° SE
Cosmos 2098 Rocket 3.5 18:58:41 10° SSE 19:03:11 47° E 19:07:09 10° NNE
Cosmos 2333 4.3 18:57:41 10° NNW 19:03:26 81° NE 19:08:32 14° SE
Meteor 1-25 Rocket 4.3 18:58:21 10° NNW 19:04:05 81° WSW 19:09:34 11° S
BREEZE-M DEB (TANK) 2.5 19:03:06 10° SW 19:05:10 20° S 19:05:37 19° SSE
Cosmos 220 Rocket 4.2 19:04:22 10° S 19:08:13 44° ESE 19:12:08 10° NE
Cosmos 1536 4.3 19:06:48 10° NNE 19:09:48 23° ENE 19:12:23 12° ESE
Cosmos 2219 Rocket 2.3 19:06:58 10° NNW 19:12:40 74° NE 19:17:33 14° SE
Helios 1A 4.3 19:10:19 10° NE 19:13:26 22° E 19:15:28 15° SE
Cosmos 1606 Rocket 3.9 19:12:20 14° SSE 19:15:50 47° E 19:19:59 10° NNE
Cosmos 2151 3.8 19:13:03 10° NNW 19:16:59 44° W 19:20:53 10° SSW
Cosmos 1763 Rocket 4.4 19:15:44 14° SSE 19:19:25 31° ESE 19:24:02 10° NE
Helios 1B rocket 3.3 19:18:06 14° ESE 19:20:32 31° ENE 19:23:40 10° N
Okean 1 3.7 19:18:41 17° SSE 19:20:59 39° E 19:24:22 10° NNE
Okean O Rocket 3.6 19:17:51 10° SW 19:21:14 22° W 19:24:38 10° NW
Cosmos 990 Rocket 4.0 19:18:35 10° NNW 19:23:46 76° ENE 19:27:52 16° SE
Cosmos 1726 Rocket 3.9 19:22:24 17° SSE 19:25:08 41° E 19:28:58 10° NNE
Cosmos 2034 Rocket 4.3 19:22:29 14° SSE 19:27:49 52° E 19:33:56 10° NNE
TSX-5 4.4 19:26:15 10° NNW 19:29:09 36° NE 19:31:39 14° ESE
Cosmos 2322 Rocket 2.5 19:23:52 10° NW 19:29:27 61° WSW 19:33:58 16° SSE
Okean 1-7 Rocket 3.7 19:25:26 10° NNW 19:29:54 74° W 19:33:33 15° S
Cosmos 1461 2.5 19:26:44 10° SSW 19:30:23 61° SE 19:34:02 10° NE
RESURS DK-1 3.6 19:26:44 10° NNW 19:30:25 34° NE 19:34:01 10° ESE
Cosmos 1470 4.4 19:29:30 10° NNE 19:31:55 18° ENE 19:33:54 12° ESE
CZ-2C R/B 3.2 19:30:01 14° SSW 19:32:02 34° W 19:34:38 10° NNW
CZ-4B R/B 4.3 19:28:04 10° S 19:32:34 42° W 19:37:11 10° NNW
Cosmos 1777 Rocket 4.4 19:29:47 10° NNW 19:34:55 57° WSW 19:39:00 16° S
Cosmos 2082 Rocket 3.2 19:30:48 10° WSW 19:36:22 51° NW 19:41:57 10° NNE
GRACE-FO 1 4.4 19:37:11 19° S 19:39:36 88° E 19:43:07 10° N
GRACE-FO 2 4.4 19:37:39 19° S 19:40:04 89° E 19:43:35 10° N
Cosmos 1437 Rocket 3.5 19:37:11 10° SW 19:40:37 45° WNW 19:44:07 10° N
Cosmos 1975 4.5 19:37:54 10° NNE 19:40:44 21° ENE 19:43:05 12° ESE
Cosmos 1503 Rocket 4.2 19:36:46 10° NNW 19:41:55 63° WSW 19:45:44 18° S
Nadezhda 4 Rocket 4.1 19:36:30 10° NNW 19:42:35 71° W 19:47:52 14° S
Cosmos 909 Rocket 4.3 19:36:20 10° SW 19:42:36 77° NW 19:49:25 10° NE
Cosmos 2237 Rocket 3.6 19:42:14 10° NNW 19:47:24 34° NE 19:52:31 10° ESE
NOSS 3-3 (A) 4.1 19:43:23 10° WSW 19:48:52 75° NW 19:55:39 10° NE
Cosmos 44 3.5 19:45:10 10° NW 19:50:38 84° SW 19:54:37 18° SE
Cosmos 1634 Rocket 4.5 19:48:17 18° SSE 19:52:36 46° E 19:58:29 10° NNE
ISS -3.4 19:49:37 10° WSW 19:52:49 42° S 19:54:30 23° SE
Cosmos 1354 Rocket 4.1 19:50:17 10° NNW 19:55:31 69° WSW 19:59:07 20° SSE
COSMOS 2428 3.1 19:50:30 10° NNW 19:56:11 60° NE 20:00:53 15° SE
Cosmos-2242 3.3 19:54:02 22° SSE 19:56:23 49° E 20:00:23 10° NNE
SL-16 R/B 3.8 19:54:14 10° NW 19:58:47 25° WSW 20:03:19 10° SSW
USA 306 2.6 19:56:50 10° W 19:58:04 23° WSW 19:58:04 23° WSW
CZ-2C R/B 4.3 19:56:30 10° ESE 20:00:41 25° NE 20:04:49 10° N
KORONAS-FOTON 4.5 19:59:46 24° SE 20:00:59 32° E 20:04:04 10° NNE
USA 290 2.0 20:01:14 22° SSW 20:03:05 75° ESE 20:06:14 10° NNE
Cosmos 1825 Rocket 4.4 20:00:27 10° NNW 20:04:33 42° W 20:07:46 15° SSW
Cosmos 1707 2.2 20:04:33 34° SSE 20:05:26 51° E 20:08:13 10° NNE
Cosmos 2026 Rocket 4.1 19:59:11 10° NNW 20:05:35 80° W 20:10:23 19° S
CZ-4C R/B 3.5 20:00:54 10° W 20:05:42 43° NNW 20:11:57 10° ENE
Cosmos 372 Rocket 4.0 20:02:09 10° NNW 20:07:18 80° ENE 20:10:44 21° SSE
Cosmos 1953 Rocket 3.9 20:05:37 10° NNW 20:09:55 60° W 20:12:42 21° S
COSMOS 2406 4.1 20:08:41 10° SW 20:14:18 53° NW 20:19:56 10° NNE
Aureole 1 Rocket 3.9 20:10:45 10° NNW 20:16:13 75° WSW 20:20:45 21° SSE
Meteor 1-14 Rocket 4.4 20:12:12 10° N 20:17:45 64° ENE 20:21:27 21° SSE
NOSS 3-3 (C) 4.4 20:14:38 10° WSW 20:20:13 65° NNW 20:27:06 10° NE
Cosmos 1271 Rocket 3.4 20:19:21 26° SE 20:20:23 32° E 20:23:27 10° NNE
Cosmos 2221 3.6 20:18:37 21° SE 20:20:27 30° E 20:24:07 10° NNE
Cosmos 540 Rocket 3.4 20:18:42 16° SSW 20:22:46 77° ESE 20:27:55 10° NNE
Cosmos 2058 Rocket 3.0 20:20:44 24° S 20:23:18 76° E 20:27:38 10° NNE
Cosmos 2333 Rocket 4.1 20:19:58 10° WNW 20:23:53 19° W 20:27:48 10° SW
Cosmos 1937 Rocket 3.7 20:19:57 10° NNW 20:25:07 66° ENE 20:28:40 20° SE
Cosmos 1766 3.5 20:24:50 10° NNW 20:27:56 44° W 20:29:18 26° SSW
Geosat 3.9 20:25:06 10° NE 20:30:09 83° SE 20:34:37 13° SSW
Spot 4 3.8 20:28:46 24° SSE 20:31:38 85° ENE 20:36:28 10° NNW
BREEZE-M R/B 4.4 20:26:04 10° W 20:33:30 53° SSW 20:39:06 10° ESE
Cosmos 468 Rocket 4.1 20:30:46 22° S 20:34:01 59° ESE 20:39:12 10° NNE
Cosmos 1842 2.9 20:33:12 37° SSE 20:34:09 55° E 20:37:16 10° NNE
Cosmos 1833 4.1 20:29:39 12° SSW 20:34:53 85° ESE 20:40:33 10° NE
ARIANE 5 R/B 2.6 20:34:30 26° SSE 20:36:58 87° WSW 20:41:29 10° NNW
CZ-2C R/B 4.4 20:31:55 10° NNE 20:36:59 31° E 20:40:12 19° SE
Cosmos 2297 Rocket 3.7 20:35:27 16° SE 20:37:42 20° E 20:41:44 10° NE
ALOS 2 2.6 20:35:46 26° SSE 20:38:13 82° ENE 20:42:38 10° NNW
Meteor 2-6 Rocket 4.4 20:35:52 22° S 20:39:47 70° E 20:45:43 10° NNE
USA 234 4.0 20:36:00 10° ENE 20:41:44 31° SE 20:44:47 22° S
Cosmos 2360 Rocket 3.8 20:37:30 10° NW 20:41:50 23° WSW 20:45:21 13° SSW
Cosmos 2322 3.7 20:36:09 10° NW 20:41:51 72° WSW 20:45:23 24° SSE
ATLAS 2AS CENTAUR R/B 3.9 20:36:58 10° WNW 20:43:28 43° N 20:49:55 10° E
Cosmos 1536 3.4 20:41:43 10° NNW 20:45:12 41° W 20:46:54 24° SSW
Helios 1A 3.6 20:44:33 10° N 20:48:22 49° WNW 20:51:10 17° SW
Helios 1B rocket 3.4 20:52:03 21° SW 20:53:31 29° W 20:56:37 10° NW
PSLV R/B 3.8 20:51:07 10° NNE 20:55:17 53° E 20:57:18 28° SSE
Cosmos 2219 Rocket 3.5 20:51:27 10° NW 20:56:08 27° WSW 20:59:14 17° SSW
Cosmos 1898 Rocket 3.6 20:51:36 10° NNW 20:56:44 62° WSW 20:59:35 26° S
SeaSat 1 3.1 20:55:07 11° ESE 20:59:42 51° NE 21:04:28 10° NNW
Cosmos 1763 Rocket 4.1 20:55:41 10° SW 21:00:53 57° NW 21:06:06 10° NNE
Meteor 1-19 Rocket 4.5 20:57:24 24° S 21:00:54 64° E 21:06:47 10° NNE
Cosmos 1766 Rocket 4.4 20:56:52 10° N 21:00:58 41° ENE 21:03:33 20° SE
Cosmos 1470 3.1 21:02:52 10° NNW 21:06:01 42° W 21:07:06 30° SW
Cosmos 1461 4.4 21:03:31 10° W 21:06:53 32° NNW 21:10:13 10° NE
RESURS DK-1 2.8 21:04:04 10° NW 21:07:52 43° WSW 21:09:14 31° SSW
Cosmos 2322 Rocket 4.3 21:09:49 10° WNW 21:12:21 13° W 21:14:53 10° WSW
NOSS 0 Rocket 4.0 21:06:14 10° NW 21:12:22 64° WSW 21:16:09 24° SSE
NOSS 8 (H) 4.0 21:11:22 10° NW 21:14:13 61° SW 21:14:47 48° S
BREEZE-M DEB (TANK) 3.9 21:08:42 10° W 21:15:11 40° SSW 21:19:56 10° ESE
Cosmos 1975 3.2 21:12:23 10° NNW 21:15:57 46° W 21:17:20 30° SSW
Intercosmos 24 3.8 21:14:04 10° N 21:18:17 73° ENE 21:19:53 31° SSE
MetOp-A 3.8 21:16:05 27° SSE 21:18:49 82° WSW 21:23:30 10° NNW
SL-16 R/B 3.4 21:13:39 10° NNW 21:19:03 42° NE 21:24:27 10° ESE
Lacrosse 4 Rocket 3.0 21:25:45 18° SE 21:26:35 19° ESE 21:29:26 10° ENE
ISS -1.7 21:26:27 10° W 21:27:25 15° WSW 21:27:25 15° WSW
SAR-Lupe-2 4.4 21:29:02 28° SW 21:29:58 34° W 21:33:03 10° NNW
CZ-2C R/B 4.3 21:26:54 10° N 21:31:12 49° WNW 21:34:12 19° SW
Cosmos 2237 Rocket 2.2 21:26:17 10° NW 21:31:59 75° WSW 21:35:41 22° SSE
Cosmos 841 Rocket 3.4 21:29:04 24° SSW 21:32:15 84° ESE 21:37:32 10° NNE
Cosmos 2279 Rocket 4.4 21:29:54 19° SSW 21:34:28 59° WNW 21:40:42 10° N
Meteor 1-11 Rocket 4.0 21:30:05 10° NNW 21:35:41 59° W 21:38:54 25° SSW
Cosmos 1812 Rocket 3.6 21:33:38 28° SSW 21:35:56 76° WNW 21:40:23 10° N
Cosmos 1980 3.7 21:30:23 10° NW 21:36:00 67° WSW 21:39:29 24° SSE
NOSS 8 (E) 4.2 21:34:40 10° WNW 21:37:32 54° SW 21:38:00 47° S
Meteor 2-20 Rocket 4.5 21:36:40 24° SSE 21:40:08 62° E 21:45:47 10° NNE
COSMOS 2428 3.6 21:35:05 10° NW 21:40:11 35° WSW 21:42:51 23° SSW
CZ-2C R/B 2.6 21:37:19 25° S 21:40:27 77° WSW 21:45:41 10° NNW
ACS3 Solar Sail 2.7 21:35:30 10° NNE 21:40:59 36° E 21:45:00 17° SSE
CZ-4C R/B 4.4 21:38:03 10° NE 21:41:00 27° E 21:42:10 22° SE
Meteor 2-4 Rocket 4.0 21:41:22 24° SSE 21:44:32 57° E 21:49:58 10° NNE
Meteor 1-10 Rocket 4.4 21:40:49 23° SSW 21:44:38 81° WNW 21:50:38 10° NNE
Cosmos 2227 Rocket 3.4 21:44:30 18° SSE 21:47:27 28° ESE 21:52:13 10° NE
Meteor 2-20 4.4 21:45:33 24° SSW 21:49:28 87° WNW 21:55:37 10° NNE
Okean 3 Rocket 4.3 21:46:06 10° N 21:50:31 50° ENE 21:53:39 18° SE
NOSS 8 (F) 4.4 21:50:02 10° WNW 21:52:50 43° SW 21:53:03 42° SSW
Cosmos 1271 Rocket 4.2 21:52:42 15° WSW 21:54:39 25° WNW 21:57:31 10° N
CZ-4C R/B 3.8 21:49:40 10° WNW 21:55:07 44° NNE 22:02:10 10° E
Cosmos 192 4.3 21:51:15 10° NNW 21:56:13 82° WSW 21:59:23 22° SSE
Cosmos 2221 3.5 21:54:54 19° SW 21:57:23 37° WNW 22:01:20 10° N
GP-B 3.7 21:55:03 10° N 21:59:15 46° W 22:01:32 24° SW
Cosmos 2263 Rocket 3.7 21:56:11 14° SE 21:59:21 23° ESE 22:03:38 10° NE
Meteor 1-27 Rocket 3.8 21:56:56 24° SSW 22:00:36 89° WNW 22:06:23 10° NNE
Cosmos 1842 Rocket 3.9 22:01:31 25° SSE 22:03:49 55° E 22:08:09 10° NNE
Cosmos 1238 Rocket 2.8 22:02:31 31° SSW 22:04:24 88° W 22:08:49 10° N
Cosmos 1805 Rocket 4.3 22:06:15 10° N 22:10:29 48° ENE 22:13:48 15° SE
Sich 1 2.9 22:09:41 10° N 22:13:53 83° E 22:16:18 24° SSE
Iridium 4 Rocket 3.8 22:11:57 23° S 22:15:41 83° E 22:21:33 10° N
Landsat 5 3.3 22:12:52 10° NNE 22:17:02 90° ESE 22:19:05 28° SSW
CZ-2C R/B 3.6 22:11:27 10° N 22:17:05 63° WNW 22:21:10 20° SW
Cosmos 2297 Rocket 2.2 22:17:12 22° SSW 22:21:00 87° ESE 22:26:42 10° NE
Cosmos 1655 Rocket 4.2 22:16:31 10° NNW 22:22:36 58° W 22:26:42 22° SSW
Cosmos 1758 3.1 22:19:32 10° N 22:23:10 76° ENE 22:25:11 25° SSE
USA 234 3.2 22:18:57 10° ENE 22:25:30 70° SSE 22:32:03 10° WSW
Alouette 2 Rocket 4.3 22:30:16 10° NNW 22:33:38 34° W 22:35:30 23° SW
Cosmos 1408 Rocket 3.5 22:30:52 10° N 22:35:10 80° ENE 22:38:11 19° SSE
ATLAS 2AS CENTAUR R/B 3.0 22:28:28 10° NW 22:35:17 72° NNE 22:42:04 10° ESE
Cosmos 1340 Rocket 2.9 22:32:40 10° N 22:36:31 69° ENE 22:39:16 18° SSE
SeaSat 1 3.0 22:34:43 23° SSW 22:37:13 38° WSW 22:41:48 10° NW
Meteor 2-10 Rocket 4.0 22:32:03 10° NNW 22:37:22 53° W 22:40:59 21° SSW
Iridium 45 4.4 22:37:58 27° S 22:39:47 79° E 22:43:13 10° N
SL-14 R/B 3.2 22:38:08 26° S 22:40:12 76° E 22:44:01 10° NNE
Cosmos 1125 Rocket 3.5 22:38:35 10° NNW 22:43:55 80° WSW 22:48:47 12° SSE
BlueWalker 3 2.8 22:43:33 25° S 22:44:13 27° SSE 22:47:17 10° E
Cosmos 1066 Rocket 4.2 22:40:54 21° SSW 22:44:33 76° WNW 22:50:07 10° NNE
Meteor 1-18 Rocket 4.2 22:49:51 20° SSW 22:53:48 81° WNW 22:59:31 10° NNE
DELTA 2 DEB (DPAF) 3.8 22:50:25 10° N 22:53:57 61° WNW 22:55:55 24° SW
Cosmos 2084 3.3 22:50:30 10° WNW 22:54:35 58° SW 22:58:37 10° SE
Cosmos 1814 Rocket 4.0 22:59:05 19° SW 23:02:49 78° WNW 23:08:06 10° NNE
Cosmos 1953 2.9 22:59:31 10° N 23:03:05 48° ENE 23:06:37 10° SSE
SL-16 R/B 2.3 22:57:49 10° NW 23:03:24 56° WSW 23:08:40 11° S
Lacrosse 4 Rocket 1.4 23:01:08 20° SW 23:03:52 77° NW 23:07:59 10° NE
BREEZE-M DEB (TANK) 3.8 23:07:01 22° S 23:07:09 22° S 23:11:02 10° SE
CZ-2D R/B 4.4 23:04:32 10° NE 23:08:13 18° E 23:11:54 10° SE
IDEFIX/ARIANE 42P 3.1 23:03:09 10° NNE 23:08:18 54° E 23:12:47 13° S
Cosmos 2219 4.1 23:04:46 14° S 23:09:09 40° ESE 23:14:23 10° NE
NPP 4.4 23:08:15 10° NNE 23:13:29 47° E 23:18:30 11° S
CZ-4C R/B 4.2 23:10:49 10° N 23:13:47 30° WNW 23:15:55 16° WSW
Cosmos 2237 Rocket 3.8 23:11:35 10° WNW 23:15:07 17° W 23:17:27 13° SW
H-2A R/B 4.4 23:12:22 10° NE 23:16:02 18° E 23:19:42 10° SE
Cosmos 1633 Rocket 3.7 23:13:18 10° N 23:17:34 56° ENE 23:21:49 10° SSE
Cosmos 1151 Rocket 3.0 23:15:33 19° SSW 23:18:34 74° WNW 23:22:55 10° N
Cosmos 1500 Rocket 4.0 23:15:30 10° NNW 23:19:45 45° W 23:22:48 18° SSW
S3M 4.1 23:14:46 13° S 23:20:23 73° E 23:26:31 10° NNE
CZ-2C R/B 4.5 23:18:46 11° WSW 23:21:33 15° W 23:24:35 10° NW
PSLV R/B 4.0 23:17:51 10° N 23:21:41 60° WNW 23:24:24 18° SW
ACS3 Solar Sail 2.1 23:17:46 10° N 23:23:35 55° WNW 23:28:30 15° SW
Meteor 1-22 Rocket 4.3 23:18:58 10° NNW 23:24:52 81° W 23:30:29 10° S
CENTAUR R/B 4.1 23:20:59 10° SSE 23:25:19 23° ESE 23:30:26 10° ENE
In-Cosmos 22 4.5 23:23:38 16° SSW 23:27:59 59° WNW 23:33:38 10° N
Cosmos 2315 Rocket 4.3 23:22:19 10° S 23:28:34 68° E 23:34:51 10° NNE
Cosmos 2227 Rocket 2.4 23:26:17 15° SW 23:31:03 71° NW 23:36:46 10° NNE
H-2A R/B 4.0 23:31:27 10° SE 23:34:38 31° ENE 23:37:52 10° N
Envisat 4.4 23:31:17 10° NNE 23:35:52 33° E 23:40:26 10° SSE
Cosmos 2263 Rocket 2.2 23:37:50 14° SW 23:42:38 84° NW 23:48:16 10° NNE
BREEZE-M DEB (TANK) 3.3 23:35:39 10° WSW 23:43:49 41° S 23:47:03 10° ESE
MSX 3.9 23:38:17 10° NNE 23:44:06 88° WNW 23:49:33 12° SSW
CZ-4C R/B 3.0 23:37:50 10° NW 23:44:10 79° NE 23:52:20 10° ESE
Cosmos 1709 Rocket 4.1 23:39:00 10° NNW 23:45:05 62° W 23:51:12 10° S
SL-16 R/B 4.4 23:42:23 10° ESE 23:47:52 34° NE 23:53:21 10° N
Cosmos 1666 Rocket 3.6 23:44:40 10° NNW 23:49:07 68° W 23:53:31 10° S
Cosmos 1943 3.2 23:43:36 10° NW 23:49:09 61° WSW 23:54:39 10° SSE
Meteor 1-15 Rocket 4.4 23:45:04 10° NNW 23:50:59 74° W 23:56:52 10° S
Cosmos 1867 3.5 23:45:46 10° NW 23:51:14 71° SW 23:56:40 10° SE
Cosmos 1743 Rocket 4.4 23:48:55 10° NNW 23:52:49 33° W 23:56:11 13° SSW
NOSS 7 (H) 4.4 23:51:52 10° WNW 23:54:41 42° SW 23:57:35 10° SSE
